Preview of NWS' New Version of Forecast
This preview is not operational and should not be used for support decisions.

Regional Weather Roundup (RWR)

Issued by National Weather Service (NWS)

                            
000
ASUS42 KTBW 212218
RWRFL 
FLORIDA REGIONAL WEATHER ROUNDUP
NATIONAL WEATHER SERVICE TAMPA BAY RUSKIN FL
600 PM EDT SAT SEP 21 2019

NOTE: "FAIR" INDICATES FEW OR NO CLOUDS BELOW 12,000 FEET WITH NO
SIGNIFICANT WEATHER AND/OR OBSTRUCTIONS TO VISIBILITY.

FLZ001>010-012>015-112-114-115-212300-
PANHANDLE FLORIDA
  
CITY           SKY/WX    TMP DP  RH WIND       PRES   REMARKS
PENSACOLA      FAIR      86  67  52 S10       30.12F                  
PENSACOLA NAS  FAIR      85  66  53 SE10      30.12S                  
MILTON NAS     FAIR      86  67  52 S9        30.12S                  
CRESTVIEW      FAIR      89  58  34 E6        30.13F                  
DUKE FIELD     FAIR      90  58  33 NE8       30.11S                  
VALPARAISO     FAIR      88  62  41 S10       30.11S                  
MARY ESTHER    MOSUNNY   86  66  51 S9        30.10F                  
TRI COUNTY     PTSUNNY   88  55  32 NE7       30.13S                  
PANAMA CITY    FAIR      88  56  33 E8        30.11S                  
TYNDALL AFB    FAIR      88  60  37 E8        30.10S                  
APALACHICOLA   FAIR      87  62  43 E8G17     30.11S                  

STATION/POSITION SKY/WX   TEMP    WIND        PRES    WAVE   SWELL
                          AIR SEA DIR/SP/G            HT/PER HT/PER
                          (F)     (DEG/KT/KT) (MB)    (FT/S) (FT/S)
30.1N   87.6W              82 85  120/ 14/ 17 1020.0F   7/ 7   5/ 7
29.2N   88.2W              83      90/ 17/ 21 1019.4F   8/ 8
28.8N   86.0W                 85   90/ 17/ 21 1019.1S   6/ 7   3/ 8
PANAMA CITY BEAC           87 84  130/  6/ 10 1020.1F
TOWER C                    82      70/ 15/ 16 1019.8F
28.5N   84.5W              83      60/ 14/ 17 1019.2F   5/ 6

$$
FLZ011-016>038-118-127-128-134-139-239-212300-
NORTH FLORIDA
  
CITY           SKY/WX    TMP DP  RH WIND       PRES   REMARKS
MARIANNA       FAIR      89  57  33 SE6       30.12S                  
TALLAHASSEE    PTSUNNY   89  64  43 E16G22    30.12S                  
PERRY          FAIR      87  64  46 E12       30.13S                  
LIVE OAK       MOSUNNY   86  61  42 NE9G15    30.14S                  
CROSS CITY       N/A     85  64  48 E7        30.12S                  
LAKE CITY      PTSUNNY   81  63  54 NE12G18   30.16R                  
GAINESVILLE    FAIR      83  61  47 E14       30.16S                  
WILLISTON      CLOUDY    83  63  49 E8        30.13R                  
PALATKA        FAIR      81  61  50 E10G20    30.16S                  
MAYPORT NAS    FAIR      83  63  50 E15       30.17S                  
JACKSONVILLE   FAIR      81  64  56 NE16      30.17S                  
JAX NAS        PTSUNNY   82  65  56 E13       30.17R                  
JAX CECIL      PTSUNNY   81  66  61 E12       30.16S                  
FERNANDINA BEA FAIR      81  66  59 NE16      30.18S                  
ST AUGUSTINE   FAIR      81  32  16 E16       30.17S                  
PALM COAST     CLOUDY    79  66  65 E10       30.15S                  

STATION/POSITION SKY/WX   TEMP    WIND        PRES    WAVE   SWELL
                          AIR SEA DIR/SP/G            HT/PER HT/PER
                          (F)     (DEG/KT/KT) (MB)    (FT/S) (FT/S)
SHELL POINT      NOT AVBL
KEATON BEACH               84      70/ 14/ 16 1020.0S
CEDAR KEY                  83      80/ 15/ 18 1019.7S
FERNANDINA                 87 81   70/  4/ 10 1022.7F
30.7N   81.3W                 81                N/A     5/15   2/15
MAYPORT                    81 81   70/ 13/ 15 1022.2F
31.4N   80.9W              80 81   90/ 12/ 16 1022.3S   4/ 7   3/ 7
ST AUGUSTINE               81 81   70/ 16/ 18 1021.5F

$$
FLZ040-043>046-052-053-057-058-063-144-212300-
INTERIOR CENTRAL FLORIDA
  
CITY           SKY/WX    TMP DP  RH WIND       PRES   REMARKS
OCALA          PTSUNNY   81  66  60 E13G22    30.13R                  
LEESBURG       PTSUNNY   83  65  54 NE15G24   30.14R                  
SANFORD        CLOUDY    81  65  58 E15       30.13S                  
ORLANDO EXEC   CLOUDY    82  65  56 E15G25    30.12S                  
ORLANDO INTL   PTSUNNY   82  65  56 NE16      30.12R                  
KISSIMMEE      PTSUNNY   83  67  58 NE20      30.11S                  
WINTER HAVEN   PTSUNNY   84  66  54 E17       30.11R                  
LAKELAND       MOSUNNY   84  66  54 E15G21    30.09S                  
BARTOW         FAIR      84  68  58 E16       30.08S                  
SEBRING        MOCLDY    83  70  64 NE16      30.08S                  
OKEECHOBEE     CLOUDY    81  70  69 E9G21     30.07S                  

$$
FLZ041-047-054-059-064-141-147-212300-
EAST CENTRAL FLORIDA
  
CITY           SKY/WX    TMP DP  RH WIND       PRES   REMARKS
ORMOND BEACH   PTSUNNY   81  64  57 E12       30.15S                  
DAYTONA BEACH  FAIR      81  64  56 E16       30.15S                  
DELAND         CLOUDY    81  64  57 E10       30.14S                  
NEW SMYRNA BEA MOSUNNY   82  64  54 N12       30.16R                  
JFK SPACE CTR  PTSUNNY   81  55  40 E13       30.12S                  
TITUSVILLE     PTSUNNY   84  70  61 E17G23    30.13S                  
CAPE CANAVERAL FAIR      82  71  69 E13G21    30.11S                  
PATRICK AFB    FAIR      82  71  68 E18       30.10F                  
MELBOURNE      LGT RAIN  81  70  69 E18       30.10S                  
VERO BEACH     CLOUDY    83  69  62 NE17G24   30.09S                  
FT PIERCE      PTSUNNY   82  69  64 E16G23    30.08S                  
STUART         PTSUNNY   82  68  61 E20G28    30.08F                  

STATION/POSITION SKY/WX   TEMP    WIND        PRES    WAVE   SWELL
                          AIR SEA DIR/SP/G            HT/PER HT/PER
                          (F)     (DEG/KT/KT) (MB)    (FT/S) (FT/S)
28.5N   80.2W              81 83   60/ 17/ 23 1020.0F   9/11   7/11
28.9N   78.5W              79 80   70/ 17/ 23 1020.9R  11/15  10/15
TRIDENT PIER               81 82   50/ 12/ 19 1021.4S
28.4N   80.5W                 81                N/A     5/15   2/15
27.5N   80.2W                 82                N/A     8/15   5/15

$$
FLZ050-056-061-142-242-148-248-149-249-151-251-155-255-
160-260-212300-
WEST CENTRAL FLORIDA
  
CITY           SKY/WX    TMP DP  RH WIND       PRES   REMARKS
CRYSTAL RIVER  CLOUDY    82  63  51 E9G21     30.11S                  
INVERNESS      PTSUNNY   81  68  65 NE14G22   30.13R                  
BROOKSVILLE    FAIR      85  62  46 E18G25    30.10S                  
CLEARWATER AIR FAIR      86  64  48 E14       30.07R                  
ST PETE CLEARW FAIR      86  66  51 E10       30.07R                  
TAMPA INTL     FAIR      87  64  46 NE8G17    30.08R                  
TAMPA EXEC     FAIR      86  68  54 E10G17    30.09R                  
PLANT CITY     PTSUNNY   84  70  61 NE14G20   30.11R                  
MACDILL AFB    FAIR      86  66  50 E20       30.06S                  
PETER O KNIGHT PTSUNNY   88  68  51 E15G23    30.07S                  
ST PETERSBURG  FAIR      85  70  60 E21       30.05S                  
SARASOTA       FAIR      89  69  51 E17G24    30.02S                  
VENICE         FAIR      90  68  48 E15G25    30.03S                  

STATION/POSITION SKY/WX   TEMP    WIND        PRES    WAVE   SWELL
                          AIR SEA DIR/SP/G            HT/PER HT/PER
                          (F)     (DEG/KT/KT) (MB)    (FT/S) (FT/S)
27.3N   84.2W                 84                N/A     5/ 6
CLEARWATER BEACH           86 85   60/ 14/ 18 1018.2S
MIDDLE TAMPA BAY           84      90/ 17/ 21 1017.9F
VENICE                     86 84   50/ 17/ 23 1016.9R

$$
FLZ066-069-070-075>078-162-262-165-265-212300-
SOUTHWEST FLORIDA AND KEYS
  
CITY           SKY/WX    TMP DP  RH WIND       PRES   REMARKS
PUNTA GORDA    FAIR      86  68  54 E15G23    30.05R                  
FT MYERS       FAIR      87  69  54 E15G23    30.01S                  
SOUTHWEST INTL FAIR      86  70  58 E20G25    30.02S                  
NAPLES         FAIR      87  73  62 NE15      30.00R                  
MARCO ISLAND   FAIR      87  72  60 NE14G23   30.01S                  
IMMOKALEE      FAIR      84  70  61 NE15G23   30.01R                  
MARATHON       CLOUDY    77  73  87 NE30G40   29.97S                  
KEY WEST NAS   PTSUNNY   83  73  72 E18G31    29.97F                  
KEY WEST INTL  FAIR      81  72  74 E18G32    29.97S                  

STATION/POSITION SKY/WX   TEMP    WIND        PRES    WAVE   SWELL
                          AIR SEA DIR/SP/G            HT/PER HT/PER
                          (F)     (DEG/KT/KT) (MB)    (FT/S) (FT/S)
NAPLES                     85 84   60/ 12/ 17 1016.0S
26.0N   85.6W              84 85   70/ 16/ 23 1016.2F   7/ 8   5/ 8
DRY TORTUGAS               84      80/ 25/ 29 1014.8F
SAND KEY                   82      70/ 28/ 36 1012.4F
SOMBRERO KEY               79      50/ 27/ 37 1014.7R
LONG KEY                   77                 1013.8

$$
FLZ067-068-071>074-168-172>174-212300-
SOUTHEAST FLORIDA 
  
CITY           SKY/WX    TMP DP  RH WIND       PRES   REMARKS
W PALM BEACH   PTSUNNY   83  70  64 NE18G25   30.05S                  
BOCA RATON     MOSUNNY   84  72  65 NE22G33   30.04R                  
FT LAUDER-EXEC CLOUDY    82  71  69 NE18G29   30.02R                  
FT LAUDERDALE  PTSUNNY   82  72  71 NE17G30   30.01R                  
POMPANO BEACH  CLOUDY    83  71  67 NE20G31   30.03R                  
PEMBROKE PINES CLOUDY    83  71  67 NE20G32   30.04R                  
OPA LOCKA      CLOUDY    82  72  71 NE21G30   30.03R                  
MIAMI          LGT RAIN  76  72  87 E7        30.03S                  
WEST KENDALL   LGT RAIN  75  75 100 NE9       30.02S FOG              
HOMESTEAD      PTSUNNY   79  75  89 NE14      30.00R                  

STATION/POSITION SKY/WX   TEMP    WIND        PRES    WAVE   SWELL
                          AIR SEA DIR/SP/G            HT/PER HT/PER
                          (F)     (DEG/KT/KT) (MB)    (FT/S) (FT/S)
VIRGINIA KEY               77 83   40/ 14/ 23 1015.9F
LAKE WORTH                 81 82